Location: Unspecified
(52.1384°N, 8.6525°W)
Time: 10:44:42
(UTC+00:00)

XW-2F - Pass Details

Date: 17 January 2021
Orbit: 500 x 519 km, 97.5° (Epoch: 24 February)

Event Time Altitude Azimuth Distance (km) Brightness Sun altitude
Rises 07:26:30 0° 8° (N) 2,655 ? -10.1°
Reaches altitude 10° 07:28:39 10° 2° (N) 1,765 ? -9.8°
Maximum altitude 07:32:17 44° 291° (WNW) 737 ? -9.2°
Drops below altitude 10° 07:35:53 10° 218° (SW) 1,755 ? -8.7°
Sets 07:38:02 0° 212° (SSW) 2,639 ? -8.4°
